Location: Boiro
(42.6475°N, 8.8834°W)
Time: 08:25:26
(UTC+02:00)

First-Move - Pass Details

Date: 17 April 2024
Orbit: 538 x 600 km, 97.7° (Epoch: 20 May)

Event Time Altitude Azimuth Distance (km) Brightness Sun altitude
Rises 05:41:53 0° 17° (NNE) 2,856 ? -21.8°
Reaches altitude 10° 05:44:07 10° 23° (NNE) 1,956 ? -21.4°
Maximum altitude 05:48:16 51° 100° (E) 768 ? -20.8°
Enters shadow 05:50:34 24° 165° (SSE) 1,257 ? -20.5°
